x

8452951 - Potter Cove, Prudence Island, Ri (ptcr1) Weather Station

9:18 - Thu 25th Dec 2014 All times are EST. -5 hours from GMT.

  • Wind
    9mph, 16mph gusts
  • Aire Temp 52°f
  • Sea Pressure 999.8mb
  • 8452951 - Potter Cove, Prudence Island, Ri
  • 8452951 - Potter Cove, Prudence Island, Ri

More Historic Weather Station data

Upgrade to MSW Pro to gain access to the past 30 days of data for over 8000 Wavebouys and Weather Stations around the globe.

Join Pro

Comparision Forecast

View Surf forecast
   
jue 12/25 9:18 9 16 mph 999.8mb 52f
9:12 10 17 mph 1000mb 52f
9:06 8 14 mph 999.6mb 52f
9:00 7 11 mph 999.7mb 51f
8:54 7 14 mph 999.8mb 51f
8:48 8 15 mph 999.6mb 52f
8:42 8 16 mph 999.5mb 52f
8:36 9 15 mph 999.7mb 53f
8:30 8 16 mph 999.6mb 53f
8:24 9 14 mph 999.5mb 53f
8:18 8 11 mph 999.3mb 53f
8:12 8 13 mph 999.4mb 53f
8:06 7 11 mph 999.2mb 52f
8:00 6 8 mph 999mb 52f
7:54 6 10 mph 999.2mb 52f
7:48 7 9 mph 999.4mb 52f
7:42 7 10 mph 999.3mb 52f
7:36 7 13 mph 999.5mb 53f
7:30 7 11 mph 999.6mb 53f
7:24 7 11 mph 999.7mb 53f
7:18 8 11 mph 999.8mb 53f
7:12 7 10 mph 999.6mb 53f
7:06 7 11 mph 999.5mb 53f
7:00 7 13 mph 999.7mb 53f
6:54 8 11 mph 999.8mb 53f
6:48 8 11 mph 999.7mb 53f
6:42 8 11 mph 999.8mb 54f
6:36 9 15 mph 999.8mb 54f
6:30 10 15 mph 999.9mb 55f
6:24 9 16 mph 999.9mb 54f
6:18 10 15 mph 999.7mb 54f
6:12 10 15 mph 999.5mb 54f
6:06 9 14 mph 999.1mb 54f
6:00 11 18 mph 999.3mb 54f
5:54 8 14 mph 998.6mb 53f
5:48 8 14 mph 998.5mb 54f
5:42 9 16 mph 998.8mb 54f
5:36 10 16 mph 998.8mb 54f
5:30 9 15 mph 998.8mb 54f
5:24 8 15 mph 998.9mb 53f
5:18 6 14 mph 998.8mb 52f
5:12 8 14 mph 998.9mb 53f
5:06 9 16 mph 998.8mb 53f
5:00 8 17 mph 998.6mb 53f
4:54 8 16 mph 998.7mb 53f
4:48 8 16 mph 998.7mb 53f
4:42 7 11 mph 998.4mb 54f
4:36 7 13 mph 998.2mb 53f
4:30 7 10 mph 998.4mb 53f
4:24 9 15 mph 998.4mb 54f
4:18 8 13 mph 998.3mb 54f
4:12 8 13 mph 998.7mb 55f
4:06 8 14 mph 998.8mb 55f
4:00 9 15 mph 998.9mb 55f
3:54 10 16 mph 999.1mb 55f
3:48 10 15 mph 999mb 55f
3:42 11 20 mph 999.2mb 56f
3:36 11 18 mph 999.3mb 55f
3:30 13 18 mph 999.4mb 55f
3:24 14 18 mph 999.5mb 56f
3:18 11 20 mph 999.6mb 56f
3:12 14 21 mph 999.8mb 56f
3:06 11 20 mph 999.7mb 56f
3:00 11 17 mph 999.9mb 56f
2:54 11 17 mph 999.8mb 56f
2:48 11 18 mph 999.9mb 56f
2:42 10 17 mph 999.9mb 56f
2:36 10 17 mph 1000mb 56f
2:30 9 16 mph 1000.2mb 56f
2:24 9 14 mph 1000.1mb 56f
2:18 10 20 mph 1000.3mb 55f
2:12 11 20 mph 1000.3mb 55f
2:06 11 17 mph 1000.5mb 55f
2:00 9 16 mph 1000.3mb 56f
1:54 11 17 mph 1000.2mb 56f
1:48 11 18 mph 1000.4mb 56f
1:42 9 16 mph 1000.5mb 55f
1:36 9 14 mph 1000.5mb 55f
1:30 10 15 mph 1000.4mb 55f
1:24 10 20 mph 1000.4mb 55f
1:18 10 15 mph 1000.3mb 56f
1:12 10 16 mph 1000.2mb 56f
1:06 11 17 mph 1000.1mb 57f
1:00 14 21 mph 999.8mb 57f
12:54 14 23 mph 999.8mb 57f
12:48 15 24 mph 1000mb 57f
12:42 14 28 mph 1000.4mb 57f
12:36 14 22 mph 1000.4mb 58f
12:30 15 24 mph 1000.1mb 58f
12:24 13 23 mph 1000.3mb 57f
12:18 15 22 mph 1000.3mb 57f
12:12 13 21 mph 1000.2mb 57f
12:06 14 21 mph 1000.4mb 57f
12:00 13 22 mph 1000.6mb 58f
mié 12/24 11:54 13 22 mph 1000.6mb 58f
11:48 11 20 mph 1000.6mb 58f
11:42 11 21 mph 1000.7mb 58f
11:36 14 23 mph 1000.9mb 58f
11:30 17 30 mph 1000.9mb 59f
11:24 15 25 mph 1000.8mb 58f
11:18 15 26 mph 1000.9mb 58f
11:12 16 28 mph 1000.9mb 58f
11:06 16 30 mph 1001mb 58f
11:00 11 26 mph 1001mb 58f
10:54 13 23 mph 1000.9mb 56f
10:48 13 21 mph 1000.9mb 56f
10:42 13 21 mph 1000.9mb 56f
10:36 13 25 mph 1001mb 56f
10:30 13 24 mph 1001mb 56f
10:24 11 23 mph 1001.2mb 57f
10:18 13 25 mph 1001.4mb 56f
10:12 10 21 mph 1001.5mb 57f
10:06 10 21 mph 1001.7mb 57f
10:00 13 24 mph 1001.9mb 56f
9:54 11 22 mph 1002mb 56f
9:48 13 24 mph 1002.2mb 55f
9:42 10 20 mph 1002.1mb 55f
9:36 10 21 mph 1002.2mb 55f
9:30 11 23 mph 1002.2mb 56f
9:24 11 23 mph 1002.3mb 55f
9:18 11 23 mph 1002.5mb 54f
9:12 10 18 mph 1002.6mb 55f
9:06 10 23 mph 1002.8mb 55f
9:00 10 18 mph 1003mb -
8:54 10 17 mph 1003.1mb -
8:48 10 22 mph 1003.3mb 55f
8:42 10 22 mph 1003.5mb 56f
8:36 10 20 mph 1003.6mb 55f
8:30 11 20 mph 1003.8mb 55f
8:24 10 18 mph 1004mb 54f
8:18 10 18 mph 1004.1mb 55f
8:12 10 22 mph 1004.3mb 55f
8:06 11 21 mph 1004.5mb 56f
8:00 10 20 mph 1004.6mb 57f
7:54 8 17 mph 1004.9mb 56f
7:48 8 15 mph 1005mb 55f
7:42 8 14 mph 1005mb 55f
7:36 8 14 mph 1005mb 55f
7:30 8 16 mph 1005.2mb 55f
7:24 7 14 mph 1005.4mb 55f
7:18 9 16 mph 1005.4mb 56f
7:12 9 17 mph 1005.3mb 56f
7:06 9 20 mph 1005.4mb 56f
7:00 10 17 mph 1005.4mb 57f
6:54 9 15 mph 1005.6mb 56f
6:48 8 13 mph 1005.9mb 55f
6:42 7 13 mph 1005.8mb 55f
6:36 11 18 mph 1005.9mb 56f
6:30 9 15 mph 1006mb 55f
6:24 3 8 mph 1006.1mb 53f
6:18 5 7 mph 1006.3mb 54f
6:12 5 9 mph 1006.2mb 54f
6:06 3 6 mph 1006.4mb 51f
6:00 1 3 mph 1006.3mb 50f
5:54 3 7 mph 1006.3mb 50f
5:48 3 5 mph 1006.2mb 50f
5:42  -  2 mph 1006.2mb 50f
5:36 1 2 mph 1006.3mb 49f
5:30 1 2 mph 1006.4mb 49f
5:24 1 2 mph 1006.5mb 49f
5:18 2 3 mph 1006.5mb 48f
5:12 1 2 mph 1006.5mb 47f
5:06 3 5 mph 1006.6mb 47f
5:00 3 6 mph 1006.7mb 48f
4:54 3
mph
1006.8mb 49f
4:48 2 5 mph 1007.1mb 48f
4:42 2 3 mph 1007.1mb 47f
4:36 1 3 mph 1007.3mb 47f
4:30 3 6 mph 1007.4mb 48f
4:24 3 5 mph 1007.6mb 48f
4:18 3 5 mph 1007.8mb 48f
4:12  -  2 mph 1008mb 47f
4:06 3 5 mph 1007.9mb 48f
4:00 5 7 mph 1008mb 48f
3:54 3 5 mph 1008.3mb 49f
3:48 3 5 mph 1008.4mb 48f
3:42 3 5 mph 1008.6mb 49f
3:36 5 6 mph 1008.5mb 48f
3:30 5 6 mph 1008.6mb 47f
3:24 3 5 mph 1008.8mb 48f
3:18 2 3 mph 1008.9mb 47f
3:12 2
mph
1009.1mb 47f
3:06 1 3 mph 1009.3mb 47f
3:00 3 5 mph 1009.2mb 47f
2:54 3
mph
1009.3mb 47f
2:48 3 5 mph 1009.3mb 47f
2:42 2 3 mph 1009.5mb 47f
2:36  -  2 mph 1009.8mb 47f
2:30  -  2 mph 1009.9mb 47f
2:24 2
mph
1009.8mb 47f
2:18 2 3 mph 1009.9mb 47f
2:12 5
mph
1009.9mb 47f
2:06 5
mph
1009.9mb 46f
2:00 6
mph
1009.9mb 46f
1:54 5 6 mph 1010mb 46f
1:48 5 6 mph 1010.1mb 46f
1:42 6 7 mph 1010.2mb 46f
1:36 6 7 mph 1010.4mb 46f
1:30 6
mph
1010.6mb 47f
1:24 5 6 mph 1010.9mb 47f
1:18 5 6 mph 1011mb 47f
1:12 6 7 mph 1011mb 46f
1:06 6 7 mph 1011.1mb 46f
1:00 6 7 mph 1011.2mb 46f
12:54 7 8 mph 1011.3mb 46f
12:48 6 7 mph 1011.5mb 46f
12:42 6
mph
1011.8mb 46f
12:36 3 5 mph 1012mb 46f
12:30 3 6 mph 1012mb 46f
12:24 5 6 mph 1012.1mb 46f
12:18 6 7 mph 1012.1mb 46f
12:12 5 6 mph 1012.3mb 46f
12:06 5 6 mph 1012.5mb 46f
12:00 5 6 mph 1012.6mb 46f
11:54 6
mph
1012.8mb 46f
11:48 6 7 mph 1012.8mb 46f
11:42 7 8 mph 1013mb 46f
11:36 7 9 mph 1013.2mb 46f
11:30 7 9 mph 1013.6mb 46f
11:24 5 7 mph 1013.8mb 46f
11:18 6 7 mph 1013.9mb 46f
11:12 6 8 mph 1013.9mb 46f
11:06 6 8 mph 1014mb 46f
11:00 6 8 mph 1014.2mb 46f
10:54 6 8 mph 1014.2mb 46f
10:48 6 7 mph 1014.4mb 46f
10:42 5 7 mph 1014.5mb 46f
10:36 5 8 mph 1014.7mb 46f
10:30 6 8 mph 1014.7mb 46f
10:24 7 10 mph 1014.7mb 45f
10:18 8 10 mph 1014.8mb 45f
10:12 8 10 mph 1014.9mb 45f
10:06 8 10 mph 1015mb 45f
10:00 8 11 mph 1015mb 45f
9:54 8 10 mph 1015.2mb 45f
9:48 8 10 mph 1015.3mb 45f
9:42 8 10 mph 1015.2mb 45f
9:36 8 10 mph 1015.4mb 45f
9:30 7 8 mph 1015.6mb 45f
9:24 7 9 mph 1015.7mb 45f
9:18 7 8 mph 1015.8mb 45f
9:12 7 8 mph 1015.8mb 45f
9:06 7 9 mph 1015.9mb 45f
9:00 8 9 mph 1015.8mb 45f
8:54 7 9 mph 1016mb 45f
8:48 8 9 mph 1015.9mb 45f
8:42 7 8 mph 1016mb 45f
8:36 7 8 mph 1016mb 44f
8:30 7 8 mph 1016mb 44f
8:24 7 8 mph 1016.1mb 44f
8:18 7 8 mph 1016mb 44f
8:12 8 9 mph 1016mb 44f
8:06 7 8 mph 1016.2mb 44f
8:00 6 8 mph 1016.4mb 44f
7:54 6 7 mph 1016.5mb 44f
7:48 7 10 mph 1016.4mb 44f
7:42 8 10 mph 1016.4mb 44f
7:36 9 14 mph 1016.3mb 44f
7:30 9 11 mph 1016.3mb 44f
7:24 9 10 mph 1016.5mb 44f
7:18 7 9 mph 1016.6mb 44f
7:12 7 9 mph 1016.7mb 44f
7:06 5 7 mph 1017mb 44f
7:00 6 9 mph 1017mb 44f
6:54 9 10 mph 1016.6mb 44f
6:48 10 13 mph 1016.7mb 44f
6:42 9 13 mph 1016.9mb 44f
6:36 9 13 mph 1016.9mb 44f
6:30 10 14 mph 1016.7mb 44f
6:24 10 14 mph 1016.8mb 44f
6:18 11 15 mph 1016.7mb 43f
6:12 10 14 mph 1016.9mb 43f
6:06 7 10 mph 1017.2mb 44f
6:00 8 10 mph 1017mb 44f
5:54 9 13 mph 1016.9mb 43f
5:48 7 11 mph 1017.2mb 43f
5:42 7 10 mph 1017.1mb 44f
5:36 7 10 mph 1017mb 44f
5:30 10 13 mph 1016.6mb 44f
5:24 9 13 mph 1016.5mb 44f
5:18 8 11 mph 1017.2mb 44f
5:12 6 8 mph 1017.1mb 44f
5:06 9 13 mph 1016.5mb 44f
5:00 8 9 mph 1016.5mb 44f
4:54 8 10 mph 1016.4mb 44f
4:48 10 13 mph 1016.4mb 44f
4:42 9 10 mph 1016.5mb 44f
4:36 10 14 mph 1016.3mb 44f
4:30 10 13 mph 1016.5mb 44f
4:24 10 14 mph 1016.5mb 44f
4:18 11 14 mph 1016.5mb 44f
4:12 10 14 mph 1016.6mb 44f
4:06 10 13 mph 1017mb 43f
4:00 8 10 mph 1017.3mb 43f
3:54 9 11 mph 1017.2mb 43f
3:48 11 15 mph 1017.2mb 43f
3:42 9 13 mph 1017.2mb -
3:36 9 14 mph 1017.7mb 43f
3:30 9 13 mph 1017.6mb 44f
3:24 8 13 mph 1017.6mb 44f
3:18 9 13 mph 1017.5mb 44f
3:12 8 11 mph 1017.6mb 44f
3:06 8 13 mph 1017.6mb 44f
3:00 8 14 mph 1017.5mb 44f
2:54 13 16 mph 1017.2mb 44f
2:48 13 16 mph 1017.3mb 44f
2:42 13 18 mph 1017.4mb 44f
2:36 11 15 mph 1017.5mb 44f
2:30 11 14 mph 1017.6mb 45f
2:24 9 13 mph 1017.6mb 45f
2:18 8 11 mph 1017.8mb 45f
2:12 8 11 mph 1017.8mb 45f
2:06 6 9 mph 1017.9mb 46f
2:00 8 10 mph 1017.9mb 46f
1:54 9 10 mph 1017.8mb 46f
1:48 9 11 mph 1017.7mb 46f
1:42 9 11 mph 1017.8mb 46f
1:36 8 10 mph 1017.8mb 46f
1:30 8 10 mph 1017.7mb 46f
1:24 9 11 mph 1017.5mb 46f
1:18 9 10 mph 1017.3mb 46f
1:12 9 11 mph 1017.1mb 46f
1:06 9 11 mph 1017.2mb 46f
1:00 9 11 mph 1017.4mb 46f
12:54 10 13 mph 1017.5mb 46f
12:48 10 13 mph 1017.5mb 46f
12:42 10 13 mph 1017.6mb 46f
12:36 10 14 mph 1017.7mb 46f
12:30 10 13 mph 1017.8mb 46f
12:24 10 11 mph 1018mb 46f
12:18 10 13 mph 1018mb 46f
12:12 10 14 mph 1018mb 46f
12:06 11 14 mph 1018.1mb 46f
12:00 11 14 mph 1018mb 46f
mar 12/23 11:54 11 13 mph 1018mb 46f
11:48 11 14 mph 1018.1mb 46f
11:42 10 11 mph 1018.2mb 46f
11:36 9 10 mph 1018.1mb 46f
11:30 9 11 mph 1018.3mb 46f
11:24 9 10 mph 1018.4mb 46f
11:18 9 10 mph 1018.6mb 46f
11:12 9 10 mph 1018.7mb 46f
11:06 8 9 mph 1018.8mb 46f
11:00 8 9 mph 1018.8mb 46f
10:54 9 10 mph 1018.8mb 46f
10:48 8 10 mph 1018.9mb 46f
10:42 9 10 mph 1018.9mb 46f
10:36 9 11 mph 1018.9mb 46f
10:30 10 13 mph 1018.7mb 46f
10:24 10 13 mph 1018.6mb 46f
10:18 9 11 mph 1018.6mb 46f
10:12 9 10 mph 1018.7mb 46f
10:06 7 8 mph 1018.6mb 46f
10:00 9 11 mph 1018.5mb 46f
9:54 9 10 mph 1018.8mb 46f
9:48 9 10 mph 1018.7mb 46f
9:42 9 10 mph 1018.8mb 46f
9:36 9 10 mph 1018.9mb 46f
9:30 9 11 mph 1018.8mb 46f
9:24 9 11 mph 1019mb 46f
9:18 10 11 mph 1019mb 46f
9:12 10 11 mph 1019.1mb 46f
9:06 10 13 mph 1019.2mb 46f
9:00 10 13 mph 1019mb 46f
8:54 10 11 mph 1019mb 46f
8:48 10 13 mph 1019.2mb 46f
8:42 10 11 mph 1019.2mb 46f
8:36 10 11 mph 1019mb 46f
8:30 11 13 mph 1018.9mb 46f
8:24 10 14 mph 1018.8mb 46f
8:18 10 14 mph 1018.6mb 46f
8:12 11 15 mph 1018.7mb 46f
8:06 11 14 mph 1018.6mb 46f
8:00 11 15 mph 1018.5mb 46f
7:54 11 14 mph 1018.6mb 46f
7:48 11 15 mph 1018.8mb 46f
7:42 13 14 mph 1018.8mb 46f
7:36 13 15 mph 1018.7mb 46f
7:30 13 16 mph 1018.6mb 46f
7:24 13 16 mph 1018.5mb 46f
7:18 11 15 mph 1018.6mb 45f
7:12 13 14 mph 1018.8mb 45f
7:06 13 15 mph 1018.8mb 45f
7:00 13 14 mph 1018.8mb 45f
6:54 11 13 mph 1018.9mb 45f
6:48 10 13 mph 1019.1mb 45f
6:42 10 13 mph 1019.1mb 45f
6:36 10 13 mph 1019.1mb 45f
6:30 11 14 mph 1019.3mb 46f
6:24 11 15 mph 1019.4mb 46f
6:18 11 14 mph 1019.2mb 46f
6:12 11 15 mph 1019.2mb 46f
6:06 13 15 mph 1019mb 46f
6:00 11 15 mph 1019.1mb 46f
5:54 10 13 mph 1019mb 46f
5:48 10 15 mph 1019mb 46f
5:42 11 14 mph 1019mb 46f
5:36 11 14 mph 1018.9mb 46f
5:30 11 15 mph 1018.8mb 46f
5:24 11 14 mph 1018.8mb 46f
5:18 10 13 mph 1018.7mb 46f
5:12 10 11 mph 1018.7mb 45f
5:06 10 11 mph 1018.7mb 46f
5:00 10 13 mph 1018.8mb 45f
4:54 10 13 mph 1019mb 46f
4:48 10 13 mph 1019mb 45f
4:42 10 14 mph 1019mb 46f
4:36 11 13 mph 1019mb 46f
4:30 10 14 mph 1018.9mb 46f
4:24 10 14 mph 1018.8mb 46f
4:18 10 14 mph 1018.7mb 46f
4:12 10 15 mph 1018.7mb 46f
4:06 10 14 mph 1018.6mb 46f
4:00 10 14 mph 1018.5mb 46f
3:54 11 14 mph 1018.6mb 46f
3:48 10 13 mph 1018.7mb 45f
3:42 11 15 mph 1019mb 46f
3:36 13 15 mph 1019.1mb 46f
3:30 11 14 mph 1019.1mb 46f
3:24 11 15 mph 1019.1mb 46f
3:18 11 14 mph 1019.1mb 46f
3:12 11 14 mph 1019.2mb 45f
3:06 11 13 mph 1018.9mb 46f
3:00 11 14 mph 1019mb 46f
2:54 10 13 mph 1019.2mb 46f
2:48 11 15 mph 1019mb 46f
2:42 11 15 mph 1018.9mb 46f
2:36 11 16 mph 1018.9mb 46f
2:30 13 15 mph 1018.9mb 46f
2:24 13 16 mph 1018.5mb 46f
2:18 14 16 mph 1018.6mb 46f
2:12 13 15 mph 1018.7mb 46f
2:06 14 17 mph 1018.7mb 46f
2:00 14 17 mph 1018.7mb 46f
1:54 13 15 mph 1018.7mb 46f
1:48 13 16 mph 1018.8mb 46f
1:42 11 15 mph 1019mb 46f
1:36 11 15 mph 1018.9mb 46f
1:30 11 14 mph 1018.8mb 46f
1:24 11 14 mph 1018.8mb 46f
1:18 11 15 mph 1018.8mb 46f
1:12 10 13 mph 1018.9mb 46f
1:06 9 13 mph 1019mb 46f
1:00 10 13 mph 1019mb 46f
12:54 9 11 mph 1019.2mb 46f
12:48 9 11 mph 1019.3mb 46f
12:42 10 13 mph 1019.2mb 46f
12:36 9 11 mph 1019.3mb 46f
12:30 9 10 mph 1019.3mb 46f
12:24 11 15 mph 1019mb 45f
12:18 10 14 mph 1019.3mb 46f
12:12 10 14 mph 1019.5mb 45f
12:06 8 10 mph 1019.8mb 45f
12:00 8 11 mph 1019.9mb 46f
11:54 9 13 mph 1019.9mb 46f
11:48 10 13 mph 1020mb 46f
11:42 10 14 mph 1020mb 46f
11:36 11 15 mph 1020mb 46f
11:30 11 15 mph 1020.1mb 46f
11:24 11 15 mph 1020.2mb 46f
11:18 13 15 mph 1020.4mb 46f
11:12 14 18 mph 1020.5mb 46f
11:06 13 16 mph 1020.5mb 46f
11:00 11 16 mph 1020.7mb 45f
10:54 11 15 mph 1020.8mb 45f
10:48 13 17 mph 1020.8mb 45f
10:42 11 14 mph 1020.9mb 45f
10:36 13 15 mph 1021mb 45f
10:30 11 16 mph 1021.3mb 45f
10:24 13 16 mph 1021.1mb 45f
10:18 13 17 mph 1021.3mb 45f
10:12 13 16 mph 1021.6mb 45f
10:06 11 16 mph 1021.7mb 45f
10:00 9 13 mph 1021.9mb 45f
9:54 10 13 mph 1021.8mb 45f
9:48 13 16 mph 1021.7mb 45f
9:42 11 15 mph 1021.8mb 45f
9:36 11 14 mph 1021.8mb 45f
9:30 10 14 mph 1021.9mb 45f
9:24 11 17 mph 1022mb 45f
9:18 11 15 mph 1022mb 45f
9:12 13 16 mph 1021.9mb 44f
9:06 11 15 mph 1022mb 44f
9:00 10 15 mph 1022.1mb 44f
8:54 10 14 mph 1022.2mb 44f
8:48 10 14 mph 1022.1mb 44f
8:42 9 13 mph 1022.1mb 44f
8:36 10 13 mph 1022mb 44f
8:30 10 13 mph 1022mb 44f
8:24 9 13 mph 1022.1mb 44f
8:18 11 16 mph 1022.2mb 44f
8:12 9 11 mph 1022.3mb 44f
8:06 11 15 mph 1022.1mb 44f
8:00 10 14 mph 1022.2mb 44f
7:54 10 14 mph 1022mb 44f
7:48 10 15 mph 1022.1mb 44f
7:42 11 14 mph 1022mb 44f
7:36 11 16 mph 1022.1mb 44f
7:30 10 13 mph 1022.3mb 44f
7:24 9 11 mph 1022.4mb 43f
7:18 8 10 mph 1022.5mb 43f
7:12 8 11 mph 1022.6mb 44f
7:06 8 10 mph 1022.6mb 43f
7:00 8 10 mph 1022.6mb 43f
6:54 8 10 mph 1022.6mb 43f
6:48 9 13 mph 1022.4mb 43f
6:42 9 11 mph 1022.3mb 43f
6:36 8 11 mph 1022.2mb 43f
6:30 9 10 mph 1022.2mb 42f
6:24 8 10 mph 1022.1mb 42f
6:18 9 10 mph 1022.2mb 42f
6:12 9 13 mph 1022.5mb 42f
6:06 9 13 mph 1022.6mb 42f
6:00 10 13 mph 1022.5mb 42f
5:54 11 14 mph 1022.5mb 42f
5:48 13 15 mph 1022.3mb 42f
5:42 13 15 mph 1022.5mb 42f
5:36 10 14 mph 1022.7mb 42f
5:30 10 14 mph 1022.6mb 42f
5:24 7 9 mph 1022.9mb 42f
5:18 8 10 mph 1022.8mb 42f
5:12 8 10 mph 1022.4mb 42f
5:06 3 6 mph 1022.9mb 42f
5:00 2 5 mph 1023.1mb 43f
4:54 2 3 mph 1022.8mb 43f
4:48 2 5 mph 1022.6mb 43f
4:42 3 7 mph 1022.4mb 43f
4:36 2 3 mph 1022.6mb 43f
4:30 3 7 mph 1022.4mb 43f
4:24 8 10 mph 1021.8mb 43f
4:18 10 15 mph 1021.3mb 43f
4:12 11 16 mph 1021.1mb 43f
4:06 14 17 mph 1021.2mb 43f
4:00 10 15 mph 1021.5mb 43f
3:54 9 11 mph 1021.9mb 42f
3:48 6 8 mph 1022.3mb 42f
3:42 9 14 mph 1021.8mb 42f
3:36 10 15 mph 1021.6mb 42f
3:30 10 14 mph 1021.6mb 42f
3:24 9 11 mph 1022.1mb 42f
3:18 7 10 mph 1022.5mb 42f
3:12 8 10 mph 1022.5mb 42f
3:06 7 8 mph 1022.7mb 42f
3:00 8 9 mph 1022.7mb 42f
2:54 9 11 mph 1022.7mb 42f
2:48 9 14 mph 1022.6mb 42f
2:42 10 14 mph 1022.3mb 42f
2:36 10 16 mph 1022.5mb 42f
2:30 9 11 mph 1022.7mb 42f
2:24 9 13 mph 1022.8mb 42f
2:18 10 13 mph 1022.9mb 42f
2:12 10 14 mph 1022.9mb 42f
2:06 9 13 mph 1022.9mb 42f
2:00 10 13 mph 1022.9mb 42f
1:54 10 15 mph 1022.9mb 42f
1:48 10 14 mph 1022.8mb 42f
1:42 10 13 mph 1022.8mb 42f
1:36 10 11 mph 1022.8mb 42f
1:30 9 11 mph 1023mb 42f
1:24 9 11 mph 1023mb 42f
1:18 8 10 mph 1023.1mb 42f
1:12 8 11 mph 1023.1mb 42f
1:06 8 10 mph 1023.3mb 43f
1:00 8 11 mph 1023.2mb 43f
12:54 7 8 mph 1023.4mb 42f
12:48 6 8 mph 1023.6mb 42f
12:42 5 6 mph 1023.6mb 42f
12:36 6 8 mph 1023.5mb 42f
12:30 7 9 mph 1023.2mb 42f
12:24 8 11 mph 1023mb 42f
12:18 9 14 mph 1023mb 42f
12:12 9 11 mph 1023.2mb 42f
12:06 8 11 mph 1023.3mb 42f
12:00 9 11 mph 1023.3mb 42f
lun 12/22 11:54 9 11 mph 1023.2mb 42f
11:48 9 11 mph 1023.2mb 42f
11:42 9 13 mph 1023.2mb 42f
11:36 9 11 mph 1023.5mb 42f
11:30 10 11 mph 1023.7mb 42f
11:24 10 14 mph 1023.7mb 42f
11:18 10 13 mph 1023.8mb 42f
11:12 10 13 mph 1023.9mb 42f
11:06 9 13 mph 1024.2mb 42f
11:00 9 11 mph 1024.2mb 42f
10:54 9 13 mph 1024.1mb 42f
10:48 11 16 mph 1023.9mb 42f
10:42 13 16 mph 1023.9mb 42f
10:36 13 16 mph 1024.1mb 43f
10:30 11 15 mph 1024.2mb 43f
10:24 10 13 mph 1024.3mb 43f
10:18 9 16 mph 1024.6mb 43f
10:12 9 14 mph 1024.6mb 43f
10:06 6 8 mph 1024.8mb 43f
10:00 6 8 mph 1024.8mb 43f
9:54 6 10 mph 1024.6mb 43f
9:48 6 10 mph 1024.5mb 43f
9:42 5 8 mph 1024.5mb 43f
9:36 6 9 mph 1024.5mb 43f
9:30 3 7 mph 1024.8mb 43f
9:24 5 7 mph 1024.8mb 43f
9:18 5 7 mph 1024.7mb 43f
9:12 7 11 mph 1024.5mb 43f
9:06 7 11 mph 1024.4mb 43f
9:00 7 10 mph 1024.5mb 43f
8:54 9 13 mph 1024.6mb 43f
8:48 10 15 mph 1024.6mb 43f
8:42 8 10 mph 1024.7mb 43f
8:36 7 11 mph 1024.9mb 43f
8:30 6 8 mph 1024.8mb 43f
8:24 6 8 mph 1024.9mb 43f
8:18 5 8 mph 1024.9mb 43f
8:12 6 9 mph 1024.8mb 43f
8:06 5 7 mph 1024.9mb 43f
8:00 6 8 mph 1024.9mb 43f
7:54 9 11 mph 1024.8mb 43f
7:48 7 13 mph 1025mb 43f
7:42 9 13 mph 1024.7mb 43f
7:36 10 14 mph 1024.5mb 43f
7:30 10 14 mph 1024.5mb 43f
7:24 10 14 mph 1024.6mb 43f
7:18 10 15 mph 1024.6mb 43f
7:12 9 11 mph 1024.6mb 43f
7:06 9 11 mph 1024.6mb 43f
7:00 9 13 mph 1024.7mb 43f
6:54 8 11 mph 1024.8mb 43f
6:48 9 11 mph 1024.8mb 43f
6:42 9 10 mph 1024.9mb 43f
6:36 9 11 mph 1025mb 43f
6:30 7 10 mph 1025mb 43f
6:24 9 11 mph 1024.9mb 43f
6:18 7 9 mph 1024.8mb 42f
6:12 7 9 mph 1024.8mb 42f
6:06 7 8 mph 1024.9mb 42f
6:00 7 9 mph 1024.9mb 42f
5:54 9 13 mph 1024.8mb 42f
5:48 13 16 mph 1024.6mb 42f
5:42 11 15 mph 1024.5mb 42f
5:36 10 14 mph 1024.8mb 42f
5:30 8 10 mph 1025mb 42f
5:24 6 8 mph 1025.1mb 42f
5:18 5 7 mph 1025.3mb 42f
5:12 6 7 mph 1025.1mb 42f
5:06 5 6 mph 1025.2mb 42f
5:00 3 5 mph 1025.2mb 42f
4:54 3 5 mph 1025.1mb 42f
4:48 3 5 mph 1025.2mb 42f
4:42 3
mph
1025.2mb 42f
4:36 3 6 mph 1025.1mb 42f
4:30 5 6 mph 1024.9mb 42f
4:24 5 6 mph 1024.9mb 42f
4:18 5 6 mph 1024.9mb 42f
4:12 6 7 mph 1024.9mb 42f
4:06 5 6 mph 1024.9mb 42f
4:00 5 6 mph 1025mb 42f
3:54 5 6 mph 1025mb 42f
3:48 2 5 mph 1025.1mb 42f
3:42 3 6 mph 1025mb 42f
3:36 2 5 mph 1024.9mb 42f
3:30 2 3 mph 1024.9mb 42f
3:24 3 6 mph 1024.8mb 42f
3:18 7 8 mph 1024.6mb 42f
3:12 7 9 mph 1024.5mb 42f
3:06 9 11 mph 1024.5mb 42f
3:00 8 10 mph 1024.6mb 42f
2:54 8 10 mph 1024.6mb 42f
2:48 9 11 mph 1024.6mb 42f
2:42 8 10 mph 1024.8mb 42f
2:36 10 13 mph 1024.6mb 42f
2:30 9 13 mph 1024.6mb 42f
2:24 9 13 mph 1024.6mb 42f
2:18 9 11 mph 1024.6mb 42f
2:12 10 13 mph 1024.5mb 42f
2:06 10 13 mph 1024.5mb 42f
2:00 9 11 mph 1024.6mb 42f
1:54 8 11 mph 1024.7mb 42f
1:48 9 11 mph 1024.8mb 42f
1:42 9 13 mph 1024.8mb 42f
1:36 8 11 mph 1024.8mb 42f
1:30 8 10 mph 1025mb 42f
1:24 8 11 mph 1024.9mb 42f
1:18 8 10 mph 1025.2mb 42f
1:12 8 10 mph 1025.5mb 42f
1:06 8 10 mph 1025.7mb 42f
1:00 7 8 mph 1025.9mb 42f
12:54 6 8 mph 1026.1mb 43f
12:48 5 7 mph 1026.2mb 43f
12:42 5 7 mph 1026.2mb 42f
12:36 5 7 mph 1026.1mb 43f
12:30 2 3 mph 1026.1mb 42f
12:24 2 5 mph 1026.1mb 43f
12:18 2 3 mph 1026mb 43f
12:12 3 5 mph 1025.9mb 43f
12:06 3 5 mph 1025.9mb 43f
12:00 3 6 mph 1026mb 43f
11:54 5 6 mph 1026mb 43f
11:48 5 7 mph 1025.9mb 43f
11:42 6 7 mph 1025.8mb 43f
11:36 5 6 mph 1026mb 42f
11:30 6 7 mph 1026mb 42f
11:24 7 8 mph 1026mb 42f
11:18 6 7 mph 1026.1mb 41f
11:12 7 8 mph 1026.1mb 41f
11:06 7 9 mph 1026.2mb 41f
11:00 8 9 mph 1026.3mb 41f
10:54 7 8 mph 1026.5mb 40f
10:48 7 9 mph 1026.7mb 40f
10:42 8 9 mph 1026.8mb 40f
10:36 8 10 mph 1026.9mb 39f
10:30 8 10 mph 1026.9mb 39f
10:24 8 10 mph 1027mb 39f
10:18 9 11 mph 1027.2mb 39f
10:12 9 11 mph 1027.3mb 39f
10:06 9 11 mph 1027.2mb 38f
10:00 9 11 mph 1027.4mb 38f
9:54 9 11 mph 1027.4mb 38f
9:48 9 13 mph 1027.4mb 38f
9:42 8 10 mph 1027.5mb 37f
9:36 9 11 mph 1027.5mb 37f
9:30 9 11 mph 1027.6mb 37f
9:24 9 11 mph 1027.6mb 37f
9:18 8 11 mph 1027.5mb 37f
9:12 9 11 mph 1027.4mb 37f
9:06 9 11 mph 1027.3mb 36f
9:00 9 11 mph 1027.3mb 35f
8:54 9 13 mph 1027.2mb 35f
8:48 9 13 mph 1027.2mb 35f
8:42 9 13 mph 1027.3mb 35f
8:36 10 13 mph 1027.4mb 35f
8:30 10 14 mph 1027.4mb 35f
8:24 10 13 mph 1027.3mb 35f
8:18 11 15 mph 1027.2mb 35f
8:12 11 14 mph 1027.2mb 35f
8:06 10 14 mph 1027.1mb 35f
8:00 11 15 mph 1027mb 35f
7:54 11 15 mph 1027mb 35f
7:48 10 14 mph 1027.1mb 35f
7:42 9 11 mph 1027.2mb 35f
7:36 9 13 mph 1027.2mb 35f
7:30 10 15 mph 1027.3mb 35f
7:24 10 14 mph 1027.2mb 35f
7:18 10 14 mph 1027.1mb 35f
7:12 10 13 mph 1027.2mb 35f
7:06 10 14 mph 1027.1mb 35f
7:00 11 14 mph 1027mb 35f
6:54 11 14 mph 1027.1mb 35f
6:48 10 13 mph 1027.2mb 35f
6:42 11 14 mph 1027.2mb 35f
6:36 10 14 mph 1027.2mb 35f
6:30 13 16 mph 1027.1mb 35f
6:24 11 15 mph 1027.1mb 35f
6:18 10 13 mph 1027.1mb 35f
6:12 10 14 mph 1027.1mb 35f
6:06 11 14 mph 1027mb 35f
6:00 11 14 mph 1027mb 35f
5:54 10 14 mph 1027mb 35f
5:48 10 13 mph 1026.9mb 35f
5:42 10 14 mph 1026.8mb 35f
5:36 10 13 mph 1026.8mb 35f
5:30 9 11 mph 1026.7mb 35f
5:24 8 10 mph 1026.7mb 35f
5:18 9 13 mph 1026.5mb 35f
5:12 8 11 mph 1026.5mb 35f
5:06 8 11 mph 1026.5mb 35f
5:00 9 13 mph 1026.5mb 35f
4:54 9 13 mph 1026.4mb 35f
4:48 9 11 mph 1026.3mb 35f
4:42 8 10 mph 1026.2mb 35f
4:36 7 9 mph 1026.2mb 35f
4:30 8 13 mph 1026.2mb 35f
4:24 5 7 mph 1026.1mb 35f
4:18 6 8 mph 1026.1mb 35f
4:12 7 10 mph 1026.1mb 35f
4:06 7 10 mph 1026mb 35f
4:00 7 11 mph 1026.1mb 35f
3:54 8 10 mph 1026.1mb 35f
3:48 9 13 mph 1026.1mb 35f
3:42 8 10 mph 1026mb 35f
3:36 7 9 mph 1026mb 35f
3:30 8 11 mph 1026.1mb 35f
3:24 8 11 mph 1026.2mb 35f
3:18 9 13 mph 1026.2mb 35f
3:12 9 13 mph 1026.3mb 35f
3:06 8 11 mph 1026.3mb 35f
3:00 9 11 mph 1026.2mb 35f
2:54 9 11 mph 1026.3mb 35f
2:48 9 11 mph 1026.3mb 35f
2:42 10 11 mph 1026.4mb 35f
2:36 10 13 mph 1026.3mb 35f
2:30 10 13 mph 1026.5mb 35f
2:24 10 14 mph 1026.5mb 35f
2:18 9 11 mph 1026.5mb 35f
2:12 9 11 mph 1026.5mb 35f
2:06 9 13 mph 1026.5mb 35f
2:00 9 11 mph 1026.5mb 35f
1:54 9 13 mph 1026.5mb 35f
1:48 9 13 mph 1026.5mb 35f
1:42 9 11 mph 1026.4mb 35f
1:36 8 10 mph 1026.5mb 35f
1:30 7 9 mph 1026.5mb 35f
1:24 7 10 mph 1026.5mb 34f
1:18 7 9 mph 1026.5mb 34f
1:12 6 9 mph 1026.4mb 34f
1:06 7 10 mph 1026.3mb 34f
1:00 7 8 mph 1026.2mb 34f
12:54 8 11 mph 1026.2mb 34f
12:48 8 10 mph 1026.2mb 34f
12:42 7 10 mph 1026.2mb 34f
12:36 7 10 mph 1026.2mb 34f
12:30 7 10 mph 1026.3mb 34f
12:24 8 11 mph 1026.2mb 35f
12:18 9 13 mph 1026.2mb 35f
12:12 9 13 mph 1026.2mb 35f
12:06 9 13 mph 1026.2mb 35f
12:00 9 13 mph 1026.2mb 35f
dom 12/21 11:54 9 13 mph 1026.3mb 35f
11:48 9 13 mph 1026.3mb 35f
11:42 9 11 mph 1026.4mb 35f
11:36 8 11 mph 1026.5mb 35f
11:30 8 10 mph 1026.5mb 35f
11:24 8 10 mph 1026.5mb 35f
11:18 7 9 mph 1026.5mb 35f
11:12 8 10 mph 1026.5mb 35f
11:06 9 10 mph 1026.5mb 35f
11:00 8 13 mph 1026.5mb 35f
10:54 9 11 mph 1026.5mb 35f
10:48 9 11 mph 1026.5mb 35f
10:42 7 14 mph 1026.5mb 35f
10:36 9 13 mph 1026.6mb 35f
10:30 9 11 mph 1026.6mb 35f
10:24 9 13 mph 1026.6mb 35f
10:18 9 11 mph 1026.5mb 35f
10:12 9 10 mph 1026.5mb 35f
10:06 9 13 mph 1026.5mb 35f
10:00 9 11 mph 1026.6mb 35f
9:54 9 13 mph 1026.5mb 35f
9:48 10 14 mph 1026.4mb 35f
9:42 10 13 mph 1026.3mb 35f
9:36 10 13 mph 1026.3mb 35f
9:30 8 11 mph 1026.3mb 35f
9:24 8 11 mph 1026.2mb 35f
9:18 10 14 mph 1026.2mb 35f
9:12 9 14 mph 1026.1mb 35f
9:06 10 14 mph 1026.1mb 35f
9:00 10 13 mph 1026mb 35f
8:54 8 11 mph 1026mb 35f
8:48 9 11 mph 1026mb 35f
8:42 9 13 mph 1026mb 35f
8:36 9 13 mph 1026mb 35f
8:30 9 13 mph 1026mb 35f
8:24 9 13 mph 1026mb 35f
8:18 9 13 mph 1026mb 35f
8:12 9 11 mph 1026mb 34f
8:06 8 11 mph 1026mb 34f
8:00 9 13 mph 1026mb 34f
7:54 9 14 mph 1025.9mb 34f
7:48 9 13 mph 1025.9mb 34f
7:42 9 11 mph 1025.8mb 34f
7:36 9 13 mph 1025.9mb 35f
7:30 10 13 mph 1025.9mb 35f
7:24 10 14 mph 1025.8mb 35f
7:18 10 14 mph 1025.8mb 35f
7:12 11 14 mph 1025.8mb 35f
7:06 11 15 mph 1025.7mb 35f
7:00 11 15 mph 1025.7mb 35f
6:54 11 14 mph 1025.7mb 35f
6:48 13 16 mph 1025.8mb 35f
6:42 13 16 mph 1025.7mb 35f
6:36 11 15 mph 1025.7mb 34f
6:30 11 14 mph 1025.7mb 35f
6:24 13 17 mph 1025.6mb 35f
6:18 13 15 mph 1025.5mb 35f
6:12 13 15 mph 1025.5mb 35f
6:06 13 16 mph 1025.4mb 34f
6:00 11 14 mph 1025.4mb 35f
5:54 10 15 mph 1025.3mb 35f
5:48 10 13 mph 1025.3mb 35f
5:42 10 14 mph 1025.3mb 35f
5:36 9 14 mph 1025.2mb 35f
5:30 9 11 mph 1025.2mb 35f
5:24 10 13 mph 1025.2mb 35f
5:18 9 13 mph 1025.2mb 35f
5:12 10 14 mph 1025.1mb 35f
5:06 10 14 mph 1025mb 35f
5:00 11 15 mph 1024.9mb 35f
4:54 11 15 mph 1024.9mb 35f
4:48 11 15 mph 1024.8mb 34f
4:42 13 16 mph 1024.8mb 34f
4:36 13 15 mph 1024.7mb 34f
4:30 13 15 mph 1024.7mb 35f
4:24 11 15 mph 1024.6mb 34f
4:18 13 17 mph 1024.5mb 35f
4:12 13 16 mph 1024.5mb 35f
4:06 11 15 mph 1024.6mb 35f
4:00 11 16 mph 1024.5mb 35f
3:54 13 16 mph 1024.5mb 35f
3:48 14 16 mph 1024.4mb 35f
3:42 13 17 mph 1024.4mb 35f
3:36 13 17 mph 1024.3mb 35f
3:30 14 17 mph 1024.2mb 35f
3:24 13 16 mph 1024.3mb 35f
3:18 11 15 mph 1024.4mb 35f
3:12 13 16 mph 1024.4mb 35f